Погода в Аргунове

Россия / Вологодская область     59°51′30″N   45°06′22″E
темп.,
°C
ветер,
м/с
пор.,
м/с
влажн.,
%
обл.,
%
осадки,
мм/ч
давл.,
гПа
погр.,
м
17 октября, вс
вс1700:00+5зюз4108298 0.8 1006791
03:00+3юз4119182 0.8 1006491
06:00+3ююз4129443 0.0 1006521
09:00+4ююз61483100 0.0 1005831
12:00+4юз5118156 0.1 10051081
15:00+5ююз6117555 0.2 10051102
18:00+5юз51179100 0.3 10051006
21:00+5юз61178100 0.3 10051011
18 октября, пн
пн1800:00+5юз5107788 0.1 1005934
03:00+3юз5118843 0.1 1005708
06:00+2юз411835 0.0 1005530
09:00+3юз4108640 0.0 1004657
12:00+5юз47675 0.0 1004959
15:00+5юз2468100 0.0 1003719
18:00+3зюз2382100 0.0 1002103
21:00+2зсз3884100 0.3 1003436
19 октября, вт
вт1900:000зюз39896 0.0 1004377
03:00−1зюз3108780 0.0 1005429
06:00+1з3789100 0.1 1006743
09:00+1з4884100 0.2 1007585
12:00+2з3791100 0.1 1008597
15:00+2сз368299 0.5 1009801
18:00−1зсз388560 0.1 1011314
21:00−1з278758 0.1 1012172
20 октября, ср
ср2000:00−2з3886100 0.0 1013279
03:00−1зсз3890100 0.0 1013513
06:00−1сз499091 0.1 1014653
09:000сз4779100 0.1 1016851
12:000сз4568100 0.1 10161027
15:00+1зсз356288 0.1 10171283
18:00−2з2379100 0.0 101753
21:00−3зюз24826 0.0 101790
21 октября, чт
чт2100:00−3ююз388080 0.0 1016268
03:00−3ю41180100 0.0 1013529
06:00−2ю61581100 0.0 1007748
09:00−2ю81993100 1.5 1001845
12:000ююз81790100 3.4 997921
15:00+1ююз71794100 3.8 993759
18:00+4ююз61697100 0.0 991641
21:00+5юз61697100 0.0 990689